Location: Cran-Gévrier
(45.9039°N, 6.1012°E)
Time: 10:47:20
(UTC+00:00)

CZ-4C R/B - Pass Details

Date: 09 February 2023
Orbit: 456 x 613 km, 98.1° (Epoch: 20 March)

Event Time Altitude Azimuth Distance (km) Brightness Sun altitude
Rises 17:19:22 0° 22° (NNE) 2,626 6.4 -5.3°
Reaches altitude 10° 17:21:41 10° 34° (NNE) 1,707 5.4 -5.7°
Maximum altitude 17:24:56 30° 97° (E) 894 3.9 -6.2°
Drops below altitude 10° 17:28:03 10° 160° (SSE) 1,632 5.7 -6.7°
Sets 17:30:13 0° 171° (S) 2,486 6.7 -7.1°
